Assumption Island Airport

Jump to: basic info | weather | runways | comments

Related pages: nearby airports | nearby navaids | notams | map

Basic information (top)

Codes: FSAS
Location: lon -9.742220, lat 46.506802, elev 10 ft / 3 m msl
Status: small_airport

Weather (top)

Current conditions for Prince Said Ibrahim International Airport 219nm (406km) WSW (rec'd 2015/03/02 06:00Z):

FMCH 020600Z 34009KT 9999 FEW020 SCT030 29/26 Q1011 NOSIG

Airport forecast for Prince Said Ibrahim International Airport 219nm (406km) WSW (rec'd 2015/03/02 06:00Z):

TAF FMCH 020500Z 0206/0312 34010KT 9999 FEW020CB BKN030 
      TEMPO 0206/0216 3000 SHRA TSRA 
      BECMG 0216/0218 06005KT PROB30 
      TEMPO 0220/0304 SHRA 
      BECMG 0304/0306 32010KT

Runways (top)

13/31: 3,963 x 75 ft (1,208 x 23 m) — paved — not lighted

Latest comments (top)

No comments yet for Assumption Island Airport

More... (top)

See also NOTAMs and nearby airports and navaids, or visit the Assumption Island Airport page at the main OurAirports website..